Zurück zum Katalog

STARLINK-37650

AktivKommunikationVLEO
NORAD 100056·PAYLOAD·🇺🇸 United States

Gestartet Jul 14, 2026 von Cape Canaveral Space Force Station

Loading…

Nächste Überflüge (nächste 24 Stunden)

TLE

AktuellSource: Space-Track

Epoche: Sep 14, 2026, 08:56 UTC

1 A0056U 26161AE  26257.37228578  .00022143  00000-0  66456-3 0  9993
2 A0056  53.1612  26.0601 0000919  88.0500 272.0608 15.34399236  9678

Verfolge STARLINK-37650 in Echtzeit mit AllMySat

Download on the App Store